K6OUA-11 Weather Reports


time (UTC)temp
F
wind
direction
speed
knots
gust
knots
rain 1hr
in
rain 24hr
in
rain mn
in
humidity
%
barometer
mb
20260506223251 73 219 4.3 11.3 0.00 0.00 0.00 52
20260506223050 73 248 2.6 11.3 0.00 0.00 0.00 52
20260506222847 72 250 11.3 11.3 0.00 0.00 0.00 52
20260506222443 73 198 2.6 12.2 0.00 0.00 0.00 51
20260506222240 72 241 1.7 13.0 0.00 0.00 0.00 52
20260506222038 72 281 2.6 13.0 0.00 0.00 0.00 52
20260506221837 72 248 7.8 13.0 0.00 0.00 0.00 51
20260506221434 72 264 6.1 12.2 0.00 0.00 0.00 51
20260506221232 72 271 7.0 13.0 0.00 0.00 0.00 51
20260506221030 72 285 1.7 13.0 0.00 0.00 0.00 51
20260506220828 72 267 9.6 13.0 0.00 0.00 0.00 51
20260506220222 72 246 9.6 11.3 0.00 0.00 0.00 51
20260506220020 72 261 6.1 11.3 0.00 0.00 0.00 51
20260506215818 72 274 6.1 11.3 0.00 0.00 0.00 52
20260506215616 72 289 4.3 11.3 0.00 0.00 0.00 50
20260506215414 72 261 9.6 11.3 0.00 0.00 0.00 50
20260506215212 73 246 4.3 11.3 0.00 0.00 0.00 51
20260506215010 72 261 6.1 11.3 0.00 0.00 0.00 52
20260506214806 72 284 6.1 16.5 0.00 0.00 0.00 53
20260506214606 72 246 7.0 16.5 0.00 0.00 0.00 52
20260506214404 71 265 7.0 16.5 0.00 0.00 0.00 52
20260506214202 71 282 6.1 11.3 0.00 0.00 0.00 51
20260506214001 72 293 7.8 11.3 0.00 0.00 0.00 52
20260506213758 72 233 4.3 11.3 0.00 0.00 0.00 52
20260506213557 72 268 5.2 11.3 0.00 0.00 0.00 52
20260506213355 72 257 7.8 11.3 0.00 0.00 0.00 52
20260506213152 71 289 5.2 11.3 0.00 0.00 0.00 53
20260506212749 72 247 9.6 13.0 0.00 0.00 0.00 51
20260506212547 72 253 5.2 13.0 0.00 0.00 0.00 51
20260506212345 73 277 5.2 13.0 0.00 0.00 0.00 51
20260506211739 72 305 0.9 11.3 0.00 0.00 0.00 53
20260506211537 71 260 7.8 11.3 0.00 0.00 0.00 53
20260506211335 71 286 7.0 11.3 0.00 0.00 0.00 52
20260506211133 72 243 7.0 11.3 0.00 0.00 0.00 53
20260506210931 72 275 0.9 11.3 0.00 0.00 0.00 54
20260506210729 72 264 3.5 11.3 0.00 0.00 0.00 54
20260506210526 71 282 7.8 11.3 0.00 0.00 0.00 54
20260506210326 71 246 6.1 11.3 0.00 0.00 0.00 55
20260506205921 71 303 6.1 11.3 0.00 0.00 0.00 52
20260506205719 72 248 3.5 11.3 0.00 0.00 0.00 53
20260506205515 72 282 2.6 11.3 0.00 0.00 0.00 54
20260506205315 72 250 7.8 11.3 0.00 0.00 0.00 53
20260506205113 72 300 5.2 11.3 0.00 0.00 0.00 52
20260506204911 72 250 1.7 11.3 0.00 0.00 0.00 54
20260506204507 71 289 1.7 11.3 0.00 0.00 0.00 54
20260506204306 71 272 7.0 13.9 0.00 0.00 0.00 54
20260506204104 71 167 0.9 13.9 0.00 0.00 0.00 55
20260506203902 71 262 7.8 13.9 0.00 0.00 0.00 53
20260506203700 71 246 6.1 13.0 0.00 0.00 0.00 55
20260506203457 70 296 7.8 13.0 0.00 0.00 0.00 53
20260506203255 71 253 7.0 10.4 0.00 0.00 0.00 53
20260506203054 72 265 5.2 10.4 0.00 0.00 0.00 51
20260506202851 73 271 9.6 10.4 0.00 0.00 0.00 49
20260506202650 73 270 6.1 10.4 0.00 0.00 0.00 49
20260506202447 74 282 4.3 10.4 0.00 0.00 0.00 50
20260506202246 73 293 2.6 8.7 0.00 0.00 0.00 50
20260506202044 73 264 4.3 8.7 0.00 0.00 0.00 50
20260506201840 73 278 1.7 8.7 0.00 0.00 0.00 51
20260506201640 73 271 2.6 9.6 0.00 0.00 0.00 50
20260506201438 73 202 0.9 9.6 0.00 0.00 0.00 49
20260506201236 73 278 5.2 7.8 0.00 0.00 0.00 49
20260506201034 73 264 5.2 7.8 0.00 0.00 0.00 48
20260506200832 73 281 5.2 7.8 0.00 0.00 0.00 49
20260506200226 72 239 2.6 10.4 0.00 0.00 0.00 51
20260506200024 72 229 1.7 10.4 0.00 0.00 0.00 51
20260506195822 71 281 7.0 10.4 0.00 0.00 0.00 48
20260506195620 72 267 6.1 11.3 0.00 0.00 0.00 50
20260506195217 71 180 3.5 8.7 0.00 0.00 0.00 51
20260506195015 71 257 9.6 8.7 0.00 0.00 0.00 51
20260506194813 71 279 7.8 9.6 0.00 0.00 0.00 50
20260506194611 71 275 6.1 9.6 0.00 0.00 0.00 49
20260506194410 71 271 7.0 9.6 0.00 0.00 0.00 48
20260506194206 71 296 4.3 11.3 0.00 0.00 0.00 49
20260506194005 71 281 3.5 11.3 0.00 0.00 0.00 48
20260506193803 71 260 5.2 9.6 0.00 0.00 0.00 48
20260506193600 70 286 10.4 9.6 0.00 0.00 0.00 48
20260506193357 71 251 6.1 9.6 0.00 0.00 0.00 48
20260506193157 71 272 2.6 9.6 0.00 0.00 0.00 49
20260506192958 70 284 6.1 9.6 0.00 0.00 0.00 48
20260506192753 70 275 7.0 10.4 0.00 0.00 0.00 48
20260506192551 70 279 7.0 10.4 0.00 0.00 0.00 48
20260506192349 70 275 3.5 10.4 0.00 0.00 0.00 48
20260506192147 71 296 5.2 11.3 0.00 0.00 0.00 49
20260506191945 70 271 5.2 11.3 0.00 0.00 0.00 48
20260506191743 70 272 5.2 6.1 0.00 0.00 0.00 48
20260506191541 71 257 1.7 6.1 0.00 0.00 0.00 46
20260506191340 71 268 2.6 6.1 0.00 0.00 0.00 48
20260506191137 71 264 2.6 9.6 0.00 0.00 0.00 49
20260506190935 70 267 0.9 9.6 0.00 0.00 0.00 49
20260506190733 70 258 4.3 10.4 0.00 0.00 0.00 49
20260506190531 70 278 6.1 10.4 0.00 0.00 0.00 49
20260506190329 70 255 4.3 10.4 0.00 0.00 0.00 50
20260506190128 70 267 8.7 8.7 0.00 0.00 0.00 50
20260506185926 69 258 3.5 8.7 0.00 0.00 0.00 50
20260506185522 70 254 7.8 11.3 0.00 0.00 0.00 50
20260506185118 70 255 4.3 9.6 0.00 0.00 0.00 51
20260506184916 69 241 3.5 9.6 0.00 0.00 0.00 51
20260506184714 70 274 7.8 11.3 0.00 0.00 0.00 51
20260506184512 69 195 3.5 11.3 0.00 0.00 0.00 53
20260506184108 68 285 4.3 10.4 0.00 0.00 0.00 51
20260506183704 68 278 3.5 7.8 0.00 0.00 0.00 53
20260506183503 69 282 6.1 7.8 0.00 0.00 0.00 50
20260506183300 69 302 1.7 13.0 0.00 0.00 0.00 52
20260506182655 68 284 6.1 11.3 0.00 0.00 0.00 52
20260506182452 68 267 9.6 11.3 0.00 0.00 0.00 53
20260506182048 68 244 6.1 9.6 0.00 0.00 0.00 54
20260506181847 68 281 5.2 9.6 0.00 0.00 0.00 53
20260506181645 68 265 5.2 10.4 0.00 0.00 0.00 54
20260506181443 67 284 5.2 10.4 0.00 0.00 0.00 52
20260506181241 68 258 7.8 9.6 0.00 0.00 0.00 52
20260506181040 68 247 7.0 9.6 0.00 0.00 0.00 53
20260506180837 68 277 2.6 9.6 0.00 0.00 0.00 53
20260506180636 68 274 7.0 9.6 0.00 0.00 0.00 52
20260506180434 68 272 4.3 9.6 0.00 0.00 0.00 51
20260506180232 68 257 8.7 6.1 0.00 0.00 0.00 52
20260506180030 68 255 0.9 6.1 0.00 0.00 0.00 55
20260506175828 67 248 0.9 6.1 0.00 0.00 0.00 55
20260506175424 67 296 2.6 8.7 0.00 0.00 0.00 54
20260506175222 66 293 4.3 9.6 0.00 0.00 0.00 54
20260506175020 68 282 7.0 9.6 0.00 0.00 0.00 53
20260506174819 67 222 0.0 8.7 0.00 0.00 0.00 54
20260506174415 67 275 2.6 8.7 0.00 0.00 0.00 56
20260506174213 67 281 7.0 8.7 0.00 0.00 0.00 56
20260506174011 66 237 0.9 8.7 0.00 0.00 0.00 55
20260506173809 67 277 4.3 7.8 0.00 0.00 0.00 55
20260506173607 66 272 5.2 7.8 0.00 0.00 0.00 55
20260506173405 66 271 7.0 7.8 0.00 0.00 0.00 56
20260506173203 66 272 2.6 7.8 0.00 0.00 0.00 56
20260506173002 66 285 2.6 7.8 0.00 0.00 0.00 55
20260506172800 66 285 6.1 9.6 0.00 0.00 0.00 55
20260506172557 66 305 3.5 9.6 0.00 0.00 0.00 56
20260506172356 66 282 3.5 9.6 0.00 0.00 0.00 56
20260506171954 66 277 7.0 10.4 0.00 0.00 0.00 56
20260506171750 66 302 3.5 7.0 0.00 0.00 0.00 57
20260506171548 66 293 5.2 7.0 0.00 0.00 0.00 57
20260506171346 66 300 1.7 7.0 0.00 0.00 0.00 57
20260506171144 66 271 1.7 10.4 0.00 0.00 0.00 57
20260506170943 65 289 3.5 10.4 0.00 0.00 0.00 57
20260506170741 65 292 7.0 7.8 0.00 0.00 0.00 58
20260506170539 65 262 4.3 7.8 0.00 0.00 0.00 58
20260506170336 65 282 7.0 7.8 0.00 0.00 0.00 59
20260506170135 65 253 3.5 9.6 0.00 0.00 0.00 60
20260506165933 65 215 0.0 9.6 0.00 0.00 0.00 61
20260506165731 64 288 4.3 8.7 0.00 0.00 0.00 60
20260506165529 65 261 8.7 8.7 0.00 0.00 0.00 59
20260506165327 65 270 7.8 8.7 0.00 0.00 0.00 59
20260506165125 65 272 7.0 8.7 0.00 0.00 0.00 60
20260506164924 64 282 3.5 8.7 0.00 0.00 0.00 60
20260506164721 64 282 4.3 8.7 0.00 0.00 0.00 61
20260506164520 64 264 4.3 8.7 0.00 0.00 0.00 62
20260506164318 64 274 6.1 8.7 0.00 0.00 0.00 62
20260506164116 63 288 3.5 8.7 0.00 0.00 0.00 62
20260506163914 64 275 7.0 8.7 0.00 0.00 0.00 61
20260506163712 64 275 4.3 7.8 0.00 0.00 0.00 61
20260506163510 64 296 4.3 7.8 0.00 0.00 0.00 60
20260506163106 64 268 5.2 7.8 0.00 0.00 0.00 61
20260506162702 64 288 4.3 7.8 0.00 0.00 0.00 61
20260506162259 63 302 4.3 5.2 0.00 0.00 0.00 62
20260506162057 64 210 0.0 5.2 0.00 0.00 0.00 62
20260506161855 64 264 1.7 5.2 0.00 0.00 0.00 63
20260506161450 64 274 3.5 5.2 0.00 0.00 0.00 61
20260506161249 64 257 3.5 1.7 0.00 0.00 0.00 60
20260506160845 64 234 0.0 1.7 0.00 0.00 0.00 60
20260506160442 64 184 0.0 2.6 0.00 0.00 0.00 60
20260506160240 64 292 1.7 1.7 0.00 0.00 0.00 59
20260506160038 64 254 0.0 1.7 0.00 0.00 0.00 58
20260506155836 64 116 0.0 1.7 0.00 0.00 0.00 62
20260506155432 63 217 0.9 1.7 0.00 0.00 0.00 59
20260506155230 63 196 0.0 2.6 0.00 0.00 0.00 60
20260506154826 63 164 1.7 2.6 0.00 0.00 0.00 61
20260506154624 63 143 1.7 3.5 0.00 0.00 0.00 65
20260506154422 63 118 1.7 3.5 0.00 0.00 0.00 63
20260506154019 62 71 0.9 3.5 0.00 0.00 0.00 65
20260506153413 61 136 0.0 2.6 0.00 0.00 0.00 68
20260506153211 60 80 0.0 2.6 0.00 0.00 0.00 69
20260506153009 60 229 0.9 2.6 0.00 0.00 0.00 68
20260506152807 60 222 0.9 0.0 0.00 0.00 0.00 71
20260506152605 59 198 0.0 0.0 0.00 0.00 0.00 71
20260506152403 59 84 0.0 0.0 0.00 0.00 0.00 72
20260506152201 59 84 0.0 0.0 0.00 0.00 0.00 72
20260506152000 59 84 0.0 0.0 0.00 0.00 0.00 74
20260506151556 59 84 0.0 0.0 0.00 0.00 0.00 73
20260506151354 59 84 0.0 0.0 0.00 0.00 0.00 73
20260506151152 59 84 0.0 0.0 0.00 0.00 0.00 73
20260506150949 59 84 0.0 0.0 0.00 0.00 0.00 73
20260506150748 59 84 0.0 0.9 0.00 0.00 0.00 72
20260506150546 59 84 0.0 0.9 0.00 0.00 0.00 73
20260506150344 59 84 0.0 0.9 0.00 0.00 0.00 73
20260506150143 58 142 0.9 1.7 0.00 0.00 0.00 74
20260506145941 58 59 0.0 1.7 0.00 0.00 0.00 75
20260506145335 57 112 0.9 2.6 0.00 0.00 0.00 76
20260506145133 57 109 0.0 2.6 0.00 0.00 0.00 76
20260506144929 57 112 1.7 2.6 0.00 0.00 0.00 77
20260506144729 57 137 0.9 1.7 0.00 0.00 0.00 76
20260506144527 57 78 0.0 1.7 0.00 0.00 0.00 78
20260506144324 56 105 0.9 1.7 0.00 0.00 0.00 78
20260506144123 56 82 0.0 0.9 0.00 0.00 0.00 78
20260506143921 56 84 0.0 0.9 0.00 0.00 0.00 79
20260506143720 55 101 0.0 1.7 0.00 0.00 0.00 80
20260506143518 55 101 0.0 1.7 0.00 0.00 0.00 80
20260506143316 55 101 0.0 2.6 0.00 0.00 0.00 81
20260506143114 55 109 0.0 2.6 0.00 0.00 0.00 80
20260506142912 55 90 0.9 2.6 0.00 0.00 0.00 81
20260506142710 54 126 1.7 2.6 0.00 0.00 0.00 81
20260506142306 54 82 0.9 2.6 0.00 0.00 0.00 82
20260506142104 54 63 0.0 2.6 0.00 0.00 0.00 82
20260506141902 54 54 0.0 2.6 0.00 0.00 0.00 82
20260506141700 54 95 1.7 3.5 0.00 0.00 0.00 83
20260506141457 53 129 0.9 3.5 0.00 0.00 0.00 84
20260506141257 53 113 0.9 2.6 0.00 0.00 0.00 84
20260506141054 53 91 2.6 2.6 0.00 0.00 0.00 85
20260506140853 53 102 1.7 2.6 0.00 0.00 0.00 85
20260506140449 52 63 0.0 1.7 0.00 0.00 0.00 86
20260506140248 52 74 0.0 3.5 0.00 0.00 0.00 87
20260506140045 52 97 1.7 3.5 0.00 0.00 0.00 87
20260506135843 52 80 0.9 3.5 0.00 0.00 0.00 88
20260506135641 51 73 0.9 2.6 0.00 0.00 0.00 88
20260506135439 51 94 1.7 2.6 0.00 0.00 0.00 88
20260506134632 50 116 3.5 3.5 0.00 0.00 0.00 89
20260506134428 50 106 1.7 3.5 0.00 0.00 0.00 89
20260506134228 50 111 2.6 3.5 0.00 0.00 0.00 89
20260506133824 50 104 2.6 3.5 0.00 0.00 0.00 90
20260506133421 50 75 0.0 1.7 0.00 0.00 0.00 90
20260506133219 50 77 1.7 2.6 0.00 0.00 0.00 90
20260506133017 50 82 0.9 2.6 0.00 0.00 0.00 90
20260506132613 49 81 0.9 3.5 0.00 0.00 0.00 91
20260506132411 49 94 0.9 3.5 0.00 0.00 0.00 91
20260506132209 49 105 1.7 0.0 0.00 0.00 0.00 91
20260506132007 49 59 0.0 0.0 0.00 0.00 0.00 91
20260506131805 49 59 0.0 0.0 0.00 0.00 0.00 91
20260506131603 49 59 0.0 0.0 0.00 0.00 0.00 91
20260506131401 49 59 0.0 0.0 0.00 0.00 0.00 91
20260506131159 49 59 0.0 0.0 0.00 0.00 0.00 90
20260506130957 49 59 0.0 0.0 0.00 0.00 0.00 90
20260506130756 49 59 0.0 0.0 0.00 0.00 0.00 90
20260506130150 49 59 0.0 0.0 0.00 0.00 0.00 91
20260506125948 49 59 0.0 0.0 0.00 0.00 0.00 90
20260506125746 49 59 0.0 0.0 0.00 0.00 0.00 91
20260506125542 49 59 0.0 0.0 0.00 0.00 0.00 91
20260506125341 49 59 0.0 0.0 0.00 0.00 0.00 91
20260506125141 49 59 0.0 0.0 0.00 0.00 0.00 91
20260506124736 49 59 0.0 1.7 0.00 0.00 0.00 91
20260506124535 49 59 0.0 1.7 0.00 0.00 0.00 91
20260506124333 49 59 0.0 1.7 0.00 0.00 0.00 91
20260506124131 49 88 0.9 1.7 0.00 0.00 0.00 91
20260506123929 49 63 0.0 1.7 0.00 0.00 0.00 91
20260506123727 49 104 1.7 1.7 0.00 0.00 0.00 91
20260506123525 49 77 0.0 1.7 0.00 0.00 0.00 91
20260506123323 49 77 0.0 1.7 0.00 0.00 0.00 91
20260506123121 49 77 0.0 1.7 0.00 0.00 0.00 91
20260506122920 49 77 0.0 1.7 0.00 0.00 0.00 91
20260506122717 49 77 0.0 0.0 0.00 0.00 0.00 91
20260506122516 49 71 0.0 0.0 0.00 0.00 0.00 91
20260506122314 49 71 0.0 0.0 0.00 0.00 0.00 91
20260506122112 49 71 0.0 0.0 0.00 0.00 0.00 91
20260506121910 49 71 0.0 0.0 0.00 0.00 0.00 91
20260506121708 49 71 0.0 0.0 0.00 0.00 0.00 91
20260506121506 49 71 0.0 0.0 0.00 0.00 0.00 91
20260506121304 49 71 0.0 0.0 0.00 0.00 0.00 91
20260506121102 49 71 0.0 0.0 0.00 0.00 0.00 91
20260506120900 49 71 0.0 0.0 0.00 0.00 0.00 91
20260506120657 49 71 0.0 0.0 0.00 0.00 0.00 91
20260506120457 49 71 0.0 0.0 0.00 0.00 0.00 91
20260506120255 49 71 0.0 0.0 0.00 0.00 0.00 91
20260506120053 49 71 0.0 0.0 0.00 0.00 0.00 91
20260506115851 49 71 0.0 0.0 0.00 0.00 0.00 91
20260506115647 49 71 0.0 0.0 0.00 0.00 0.00 91
20260506115447 49 71 0.0 0.0 0.00 0.00 0.00 91
20260506115245 49 71 0.0 0.0 0.00 0.00 0.00 91
20260506115043 50 71 0.0 0.0 0.00 0.00 0.00 91
20260506114841 49 71 0.0 0.0 0.00 0.00 0.00 91
20260506114437 49 71 0.0 0.0 0.00 0.00 0.00 91
20260506114034 50 71 0.0 0.0 0.00 0.00 0.00 90
20260506113628 50 71 0.0 0.0 0.00 0.00 0.00 90
20260506113427 50 71 0.0 0.0 0.00 0.00 0.00 90
20260506113226 50 71 0.0 0.0 0.00 0.00 0.00 90
20260506113024 50 71 0.0 0.0 0.00 0.00 0.00 90
20260506112822 50 71 0.0 0.0 0.00 0.00 0.00 91
20260506112620 50 71 0.0 0.0 0.00 0.00 0.00 90
20260506111813 50 71 0.0 1.7 0.00 0.00 0.00 91
20260506111611 50 71 0.0 1.7 0.00 0.00 0.00 91
20260506111207 50 71 0.0 2.6 0.00 0.00 0.00 91
20260506111005 50 99 0.9 2.6 0.00 0.00 0.00 91
20260506110803 50 109 2.6 2.6 0.00 0.00 0.00 91
20260506110602 50 106 0.9 2.6 0.00 0.00 0.00 91
20260506110158 50 102 1.7 0.0 0.00 0.00 0.00 92
20260506105956 50 91 0.9 0.0 0.00 0.00 0.00 92
20260506105350 50 82 0.0 0.0 0.00 0.00 0.00 92
20260506105148 50 82 0.0 1.7 0.00 0.00 0.00 92
20260506104742 50 95 0.9 2.6 0.00 0.00 0.00 92
20260506104542 50 98 0.9 2.6 0.00 0.00 0.00 92
20260506104340 50 98 0.9 2.6 0.00 0.00 0.00 92
20260506104138 50 109 1.7 0.0 0.00 0.00 0.00 92
20260506103937 50 70 0.0 0.0 0.00 0.00 0.00 92
20260506103531 50 70 0.0 0.0 0.00 0.00 0.00 92
20260506103331 50 70 0.0 0.0 0.00 0.00 0.00 92
20260506103129 50 70 0.0 0.0 0.00 0.00 0.00 92
20260506102927 50 70 0.0 0.0 0.00 0.00 0.00 92
20260506102523 50 70 0.0 0.0 0.00 0.00 0.00 92
20260506102321 50 70 0.0 1.7 0.00 0.00 0.00 92
20260506102120 50 70 0.0 1.7 0.00 0.00 0.00 92
20260506101918 50 70 0.0 1.7 0.00 0.00 0.00 92
20260506101715 49 70 0.0 2.6 0.00 0.00 0.00 92
20260506101514 49 77 0.0 2.6 0.00 0.00 0.00 92
20260506101312 49 105 1.7 0.0 0.00 0.00 0.00 92
20260506101110 49 98 0.9 0.0 0.00 0.00 0.00 92
20260506100908 50 75 0.0 0.0 0.00 0.00 0.00 92
20260506100706 49 75 0.0 0.0 0.00 0.00 0.00 92
20260506100502 49 75 0.0 0.0 0.00 0.00 0.00 92
20260506100302 49 75 0.0 0.0 0.00 0.00 0.00 91
20260506095859 50 75 0.0 0.0 0.00 0.00 0.00 90
20260506095656 50 75 0.0 0.0 0.00 0.00 0.00 90
20260506095455 50 75 0.0 0.0 0.00 0.00 0.00 90
20260506095253 50 75 0.0 0.0 0.00 0.00 0.00 90
20260506095051 51 75 0.0 0.0 0.00 0.00 0.00 90
20260506094849 51 75 0.0 0.0 0.00 0.00 0.00 90
20260506094647 51 75 0.0 0.0 0.00 0.00 0.00 90
20260506094445 51 75 0.0 0.0 0.00 0.00 0.00 90
20260506094243 51 75 0.0 0.0 0.00 0.00 0.00 90
20260506094041 51 75 0.0 0.0 0.00 0.00 0.00 90
20260506093840 51 75 0.0 0.0 0.00 0.00 0.00 90
20260506093638 51 75 0.0 0.0 0.00 0.00 0.00 90
20260506093436 51 75 0.0 0.0 0.00 0.00 0.00 90
20260506093232 51 75 0.0 0.0 0.00 0.00 0.00 90
20260506093032 51 75 0.0 0.0 0.00 0.00 0.00 90
20260506092626 51 75 0.0 0.0 0.00 0.00 0.00 90
20260506092224 51 75 0.0 0.0 0.00 0.00 0.00 90
20260506092022 51 75 0.0 0.0 0.00 0.00 0.00 90
20260506091819 51 75 0.0 0.0 0.00 0.00 0.00 90
20260506091617 51 75 0.0 0.0 0.00 0.00 0.00 90
20260506091416 51 75 0.0 0.0 0.00 0.00 0.00 90
20260506091215 51 75 0.0 0.0 0.00 0.00 0.00 90
20260506091013 51 75 0.0 0.0 0.00 0.00 0.00 90
20260506090811 51 75 0.0 0.0 0.00 0.00 0.00 90
20260506090609 51 75 0.0 0.0 0.00 0.00 0.00 90
20260506090407 51 75 0.0 0.0 0.00 0.00 0.00 90
20260506090205 51 75 0.0 1.7 0.00 0.00 0.00 90
20260506090003 51 75 0.0 1.7 0.00 0.00 0.00 90
20260506085801 51 75 0.0 1.7 0.00 0.00 0.00 90
20260506085559 51 75 0.0 1.7 0.00 0.00 0.00 90
20260506085358 51 84 0.9 1.7 0.00 0.00 0.00 90
20260506085156 51 75 0.0 0.0 0.00 0.00 0.00 90
20260506084751 52 66 0.0 0.0 0.00 0.00 0.00 90
20260506084550 52 66 0.0 0.0 0.00 0.00 0.00 90
20260506084146 52 66 0.0 0.0 0.00 0.00 0.00 90
20260506083944 52 66 0.0 0.0 0.00 0.00 0.00 90
20260506083742 52 66 0.0 0.0 0.00 0.00 0.00 90
20260506083540 51 66 0.0 0.0 0.00 0.00 0.00 90
20260506083137 52 66 0.0 0.0 0.00 0.00 0.00 90
20260506082934 52 66 0.0 0.0 0.00 0.00 0.00 90
20260506082733 52 66 0.0 0.0 0.00 0.00 0.00 90
20260506082531 52 66 0.0 0.0 0.00 0.00 0.00 90
20260506082330 52 66 0.0 0.0 0.00 0.00 0.00 90
20260506082127 52 66 0.0 0.0 0.00 0.00 0.00 90
20260506081723 52 66 0.0 0.0 0.00 0.00 0.00 90
20260506081521 52 66 0.0 0.0 0.00 0.00 0.00 89
20260506081319 52 66 0.0 0.0 0.00 0.00 0.00 90
20260506081118 52 66 0.0 0.0 0.00 0.00 0.00 90
20260506080916 52 66 0.0 0.0 0.00 0.00 0.00 90
20260506080654 52 66 0.0 0.0 0.00 0.00 0.00 90
20260506080512 52 66 0.0 0.0 0.00 0.00 0.00 90
20260506080310 52 66 0.0 2.6 0.00 0.00 0.00 90
20260506080108 52 66 0.0 2.6 0.00 0.00 0.00 90
20260506073443 52 56 0.0 0.0 0.00 0.00 0.00 91
20260506073241 52 56 0.0 0.0 0.00 0.00 0.00 91
20260506073039 52 56 0.0 0.0 0.00 0.00 0.00 91
20260506072838 52 56 0.0 0.0 0.00 0.00 0.00 91
20260506072635 52 56 0.0 0.0 0.00 0.00 0.00 91
20260506072230 52 56 0.0 0.0 0.00 0.00 0.00 91
20260506072030 52 56 0.0 0.0 0.00 0.00 0.00 90
20260506071828 52 56 0.0 0.0 0.00 0.00 0.00 91
20260506071626 52 56 0.0 0.0 0.00 0.00 0.00 91
20260506071424 52 56 0.0 0.0 0.00 0.00 0.00 90
20260506071222 52 56 0.0 0.9 0.00 0.00 0.00 90
20260506071020 52 56 0.0 0.9 0.00 0.00 0.00 90
20260506070820 52 56 0.0 1.7 0.00 0.00 0.00 90
20260506070617 52 61 0.9 1.7 0.00 0.00 0.00 90
20260506070415 52 63 0.0 1.7 0.00 0.00 0.00 90
20260506070213 52 82 0.9 0.0 0.00 0.00 0.00 90
20260506062336 53 8 0.0 0.0 0.00 0.00 0.00 89
20260506062135 53 8 0.0 0.0 0.00 0.00 0.00 89
20260506061933 53 8 0.0 0.0 0.00 0.00 0.00 89
20260506061731 53 8 0.0 0.0 0.00 0.00 0.00 89
20260506061529 53 8 0.0 0.0 0.00 0.00 0.00 89
20260506061327 52 8 0.0 0.0 0.00 0.00 0.00 89
20260506061125 53 8 0.0 0.0 0.00 0.00 0.00 89
20260506060923 53 8 0.0 0.0 0.00 0.00 0.00 89
20260506060721 53 8 0.0 0.0 0.00 0.00 0.00 89
20260506060519 53 8 0.0 0.0 0.00 0.00 0.00 88
20260506060115 53 8 0.0 0.0 0.00 0.00 0.00 88
20260506051231 55 288 0.0 0.0 0.00 0.00 0.00 85
20260506051029 55 288 0.0 0.0 0.00 0.00 0.00 84
20260506050826 55 288 0.0 0.0 0.00 0.00 0.00 85
20260506050624 55 288 0.0 1.7 0.00 0.00 0.00 85
20260506050422 55 288 0.0 1.7 0.00 0.00 0.00 85
20260506045009 55 289 0.0 0.9 0.00 0.00 0.00 82
20260506044807 55 289 0.0 1.7 0.00 0.00 0.00 82
20260506044605 55 289 0.0 1.7 0.00 0.00 0.00 82
20260506044201 56 289 0.9 2.6 0.00 0.00 0.00 83
20260506043957 56 282 0.9 2.6 0.00 0.00 0.00 82
20260506043758 56 292 0.9 1.7 0.00 0.00 0.00 82
20260506043354 56 293 0.9 1.7 0.00 0.00 0.00 82
20260506043151 56 275 0.0 1.7 0.00 0.00 0.00 82
20260506042950 56 289 0.0 1.7 0.00 0.00 0.00 82
20260506042746 56 288 0.9 1.7 0.00 0.00 0.00 82
20260506042546 56 286 0.9 1.7 0.00 0.00 0.00 81
20260506042344 56 281 0.9 1.7 0.00 0.00 0.00 81
20260506042142 57 279 0.9 0.0 0.00 0.00 0.00 81
20260506041738 56 265 0.0 0.0 0.00 0.00 0.00 81
20260506041536 57 265 0.0 0.0 0.00 0.00 0.00 81
20260506041335 57 265 0.0 0.0 0.00 0.00 0.00 80
20260506041133 57 265 0.0 0.0 0.00 0.00 0.00 80
20260506035921 57 265 0.0 0.0 0.00 0.00 0.00 79
20260506035720 57 265 0.0 0.0 0.00 0.00 0.00 79
20260506035518 57 265 0.0 0.0 0.00 0.00 0.00 79
20260506035315 57 265 0.0 0.0 0.00 0.00 0.00 79
20260506035114 57 265 0.0 0.0 0.00 0.00 0.00 79
20260506034912 58 265 0.0 0.0 0.00 0.00 0.00 78
20260506034710 58 265 0.0 0.0 0.00 0.00 0.00 78
20260506034508 58 265 0.0 0.0 0.00 0.00 0.00 77
20260506034306 58 265 0.0 0.0 0.00 0.00 0.00 77
20260506034104 58 265 0.0 0.0 0.00 0.00 0.00 77
20260506033902 58 265 0.0 0.0 0.00 0.00 0.00 77
20260506033700 58 265 0.0 0.0 0.00 0.00 0.00 76
20260506033457 58 265 0.0 0.0 0.00 0.00 0.00 76
20260506033256 59 265 0.0 0.0 0.00 0.00 0.00 76
20260506033053 59 265 0.0 0.0 0.00 0.00 0.00 76
20260506032852 59 265 0.0 0.0 0.00 0.00 0.00 76
20260506032651 59 265 0.0 0.0 0.00 0.00 0.00 76
20260506032449 59 265 0.0 0.0 0.00 0.00 0.00 76
20260506032247 59 265 0.0 0.0 0.00 0.00 0.00 76
20260506032045 59 265 0.0 0.0 0.00 0.00 0.00 76
20260506031843 59 265 0.0 0.0 0.00 0.00 0.00 76
20260506031641 59 265 0.0 0.9 0.00 0.00 0.00 76
20260506031439 59 265 0.0 0.9 0.00 0.00 0.00 76
20260506031036 59 275 0.9 0.9 0.00 0.00 0.00 76
20260506030833 59 279 0.0 0.9 0.00 0.00 0.00 76
20260506030631 59 270 0.0 0.9 0.00 0.00 0.00 76
20260506030228 59 275 0.9 1.7 0.00 0.00 0.00 76
20260506030026 59 272 0.9 1.7 0.00 0.00 0.00 75
20260506025824 59 254 0.0 1.7 0.00 0.00 0.00 75
20260506025622 59 261 0.9 0.9 0.00 0.00 0.00 75
20260506025420 59 267 0.0 0.9 0.00 0.00 0.00 75
20260506025218 60 217 0.0 0.0 0.00 0.00 0.00 75
20260506025016 60 217 0.0 0.0 0.00 0.00 0.00 74
20260506024815 60 217 0.0 0.0 0.00 0.00 0.00 74
20260506024613 60 217 0.0 0.0 0.00 0.00 0.00 74
20260506024410 60 217 0.0 0.0 0.00 0.00 0.00 73
20260506024207 60 217 0.0 0.9 0.00 0.00 0.00 73
20260506024007 60 217 0.0 0.9 0.00 0.00 0.00 73
20260506023805 60 217 0.0 1.7 0.00 0.00 0.00 73
20260506023603 60 180 0.0 1.7 0.00 0.00 0.00 73
20260506023200 61 180 0.0 1.7 0.00 0.00 0.00 72
20260506022957 61 264 0.0 1.7 0.00 0.00 0.00 72
20260506022755 61 264 0.0 4.3 0.00 0.00 0.00 73
20260506022553 61 268 0.0 4.3 0.00 0.00 0.00 72
20260506022352 61 275 0.0 4.3 0.00 0.00 0.00 73
20260506022150 61 279 0.9 2.6 0.00 0.00 0.00 73
20260506021948 61 270 3.5 2.6 0.00 0.00 0.00 72
20260506021746 61 278 1.7 2.6 0.00 0.00 0.00 72
20260506021544 61 279 1.7 2.6 0.00 0.00 0.00 72
20260506021342 61 274 0.0 2.6 0.00 0.00 0.00 71
20260506021140 61 274 0.9 3.5 0.00 0.00 0.00 72
20260506020938 61 293 1.7 3.5 0.00 0.00 0.00 72
20260506020736 61 284 3.5 4.3 0.00 0.00 0.00 72
20260506020535 61 279 0.9 4.3 0.00 0.00 0.00 72
20260506020333 61 258 0.0 4.3 0.00 0.00 0.00 71
20260506020131 61 288 2.6 5.2 0.00 0.00 0.00 72
20260506015929 61 293 2.6 5.2 0.00 0.00 0.00 71
20260506015727 61 288 2.6 4.3 0.00 0.00 0.00 71
20260506015525 61 284 2.6 4.3 0.00 0.00 0.00 72
20260506015323 61 271 2.6 4.3 0.00 0.00 0.00 72
20260506015121 61 241 0.0 4.3 0.00 0.00 0.00 72
20260506014919 61 219 0.0 4.3 0.00 0.00 0.00 72
20260506014716 62 258 1.7 5.2 0.00 0.00 0.00 72
20260506014314 62 293 2.6 7.0 0.00 0.00 0.00 71
20260506014112 62 300 0.9 7.0 0.00 0.00 0.00 71
20260506013910 62 296 0.9 7.0 0.00 0.00 0.00 70
20260506013506 62 199 0.0 6.1 0.00 0.00 0.00 70
20260506013302 63 191 0.0 4.3 0.00 0.00 0.00 70
20260506012900 63 267 0.0 4.3 0.00 0.00 0.00 69
20260506012658 63 278 0.9 6.1 0.00 0.00 0.00 69
20260506012456 63 229 0.0 6.1 0.00 0.00 0.00 69
20260506012254 63 299 0.9 6.1 0.00 0.00 0.00 69
20260506012052 63 267 0.0 6.1 0.00 0.00 0.00 69
20260506011850 63 230 2.6 6.1 0.00 0.00 0.00 69
20260506011447 63 267 5.2 7.0 0.00 0.00 0.00 68
20260506011245 63 262 4.3 7.0 0.00 0.00 0.00 68
20260506011043 63 270 1.7 7.0 0.00 0.00 0.00 68
20260506010841 63 213 0.0 7.0 0.00 0.00 0.00 68
20260506010639 63 240 3.5 7.0 0.00 0.00 0.00 68
20260506010437 63 241 0.9 7.0 0.00 0.00 0.00 69
20260506010235 63 278 1.7 6.1 0.00 0.00 0.00 69
20260506010033 63 268 4.3 6.1 0.00 0.00 0.00 69
20260506005831 63 288 4.3 6.1 0.00 0.00 0.00 69
20260506005629 63 260 3.5 8.7 0.00 0.00 0.00 68
20260506005427 63 300 2.6 8.7 0.00 0.00 0.00 69
20260506005226 63 270 5.2 11.3 0.00 0.00 0.00 68
20260506005024 63 285 5.2 11.3 0.00 0.00 0.00 67
20260506004822 63 254 8.7 9.6 0.00 0.00 0.00 66
20260506004416 64 265 0.9 9.6 0.00 0.00 0.00 65
20260506004215 64 274 1.7 10.4 0.00 0.00 0.00 65
20260506004014 64 255 7.8 10.4 0.00 0.00 0.00 63
20260506003811 64 239 7.0 8.7 0.00 0.00 0.00 63
20260506003611 65 278 1.7 8.7 0.00 0.00 0.00 63
20260506003207 64 247 3.5 11.3 0.00 0.00 0.00 65
20260506003003 64 278 7.0 11.3 0.00 0.00 0.00 65
20260506002803 64 258 9.6 13.0 0.00 0.00 0.00 63
20260506002601 65 258 5.2 13.0 0.00 0.00 0.00 62
20260506002357 65 277 7.0 13.0 0.00 0.00 0.00 61
20260506002157 66 271 7.8 9.6 0.00 0.00 0.00 61
20260506001954 66 227 2.6 9.6 0.00 0.00 0.00 61
20260506001753 66 277 3.5 9.6 0.00 0.00 0.00 61
20260506001551 65 254 0.9 9.6 0.00 0.00 0.00 62
20260506001350 65 275 2.6 9.6 0.00 0.00 0.00 62
20260506001148 65 271 4.3 8.7 0.00 0.00 0.00 63
20260506000946 65 296 1.7 8.7 0.00 0.00 0.00 63
20260506000744 64 267 4.3 10.4 0.00 0.00 0.00 63
20260506000542 64 281 0.9 10.4 0.00 0.00 0.00 62
20260506000340 64 260 6.1 10.4 0.00 0.00 0.00 62
20260506000139 64 237 1.7 7.8 0.00 0.00 0.00 61
20260505235936 65 277 1.7 7.8 0.00 0.00 0.00 61
20260505235531 65 264 5.2 7.0 0.00 0.00 0.00 60
20260505235331 65 156 0.0 7.0 0.00 0.00 0.00 60
20260505234927 65 258 6.1 10.4 0.00 0.00 0.00 59
20260505234725 65 277 2.6 9.6 0.00 0.00 0.00 58
20260505234523 65 271 7.8 9.6 0.00 0.00 0.00 58
20260505234117 65 257 6.1 9.6 0.00 0.00 0.00 58
20260505233916 65 270 0.9 9.6 0.00 0.00 0.00 58
20260505233715 65 258 7.8 9.6 0.00 0.00 0.00 58
20260505233513 65 277 5.2 9.6 0.00 0.00 0.00 58
20260505233310 65 264 5.2 10.4 0.00 0.00 0.00 58
20260505233110 65 258 6.1 10.4 0.00 0.00 0.00 58
20260505232305 65 258 5.2 13.0 0.00 0.00 0.00 56
20260505232101 66 260 5.2 13.0 0.00 0.00 0.00 55
20260505231858 66 288 1.7 13.0 0.00 0.00 0.00 55
20260505231657 67 268 7.0 7.8 0.00 0.00 0.00 55
20260505231455 66 281 1.7 7.8 0.00 0.00 0.00 56
20260505231251 66 257 5.2 7.0 0.00 0.00 0.00 57
20260505231051 66 268 7.0 7.0 0.00 0.00 0.00 58
20260505230849 66 163 1.7 7.0 0.00 0.00 0.00 57
20260505230646 66 251 0.0 11.3 0.00 0.00 0.00 56
20260505230445 66 296 0.0 11.3 0.00 0.00 0.00 56
20260505230243 66 182 0.0 13.9 0.00 0.00 0.00 57
20260505225839 65 244 7.0 13.9 0.00 0.00 0.00 56
20260505225436 67 278 0.9 8.7 0.00 0.00 0.00 54
20260505225234 67 254 7.8 9.6 0.00 0.00 0.00 55
20260505225032 66 277 3.5 9.6 0.00 0.00 0.00 55
20260505224830 66 196 0.9 9.6 0.00 0.00 0.00 56
20260505224628 66 244 4.3 15.6 0.00 0.00 0.00 56
20260505224426 65 324 3.5 15.6 0.00 0.00 0.00 56
20260505224224 65 262 7.0 11.3 0.00 0.00 0.00 55
20260505224022 65 220 5.2 11.3 0.00 0.00 0.00 54
20260505223818 67 281 6.1 12.2 0.00 0.00 0.00 54
20260505223617 67 196 6.1 12.2 0.00 0.00 0.00 52
20260505223416 68 279 2.6 12.2 0.00 0.00 0.00 54